Location: Birkenwerder
(52.6919°N, 13.2774°E)
Time: 23:18:44
(UTC+00:00)

Cosmos 1570 Rocket - Pass Details

Date: 02 October 2020
Orbit: 763 x 788 km, 74.1° (Epoch: 24 October)

Event Time Altitude Azimuth Distance (km) Brightness Sun altitude
Exits shadow 03:24:21 26° 272° (W) 1,506 5.0 -16.7°
Maximum altitude 03:26:13 33° 309° (NW) 1,303 4.9 -16.4°
Drops below altitude 10° 03:31:04 10° 14° (NNE) 2,364 6.9 -15.7°
Sets 03:33:43 0° 24° (NNE) 3,297 7.9 -15.4°
